Regional Weather Roundup
Issued by NWS

Home | Current Version | Previous Version | Text Only | Print | Product List | Glossary On
Versions: 1 2 3 4 5 6 7 8 9 10 11 12 13 14 15 16 17 18 19 20 21 22 23 24 25 26 27 28 29 30 31 32 33 34 35 36 37 38 39 40 41 42 43 44 45 46 47 48 49 50
000
ASUS44 KOUN 020110
RWROK

WEATHER ROUNDUP FOR OKLAHOMA
NATIONAL WEATHER SERVICE NORMAN OK
800 PM CDT FRI AUG 01 2014

NOTE: "FAIR" INDICATES FEW OR NO CLOUDS BELOW 12,000 FEET WITH NO
      SIGNIFICANT WEATHER AND/OR OBSTRUCTIONS TO VISIBILITY.

OKZ001>007-009>012-014-015-017-020200-
NORTHWEST OKLAHOMA AND THE PANHANDLE

CITY           SKY/WX    TMP DP  RH WIND       PRES   REMARKS
GAGE           PTCLDY    83  60  45 NE9       30.07R
ENID/WOODRING  PTCLDY    82  66  57 SE12      30.01S
$$

OKZ016-021>023-033>039-044-045-020200-
SOUTHWEST OKLAHOMA

CITY           SKY/WX    TMP DP  RH WIND       PRES   REMARKS
LAWTON/REGL    PTCLDY    83  60  45 SE6       30.03S
LAWTON/FT SILL PTCLDY    82  63  52 E7        30.02S
FREDERICK      PTCLDY    83  63  50 E5        30.01S
CLINTON        CLEAR     83  59  44 SE8       30.07S
HOBART         PTCLDY    82  62  50 S6        30.05S
ALTUS AFB      CLEAR     81  66  60 S6        30.04S
$$

OKZ018>020-024>031-020200-
CENTRAL OKLAHOMA

CITY           SKY/WX    TMP DP  RH WIND       PRES   REMARKS
OKLAHOMA CITY  MOCLDY    79  64  60 E7        30.05R
OKC/WILEY POST MOCLDY    81  65  58 E7        30.05R
OKC/TINKER AFB CLEAR     78  67  68 E6        30.06R
STILLWATER     CLEAR     80  64  58 S7        30.03S
GUTHRIE        CLEAR     80  65  59 S6        30.04S
$$

OKZ008-013-054>072-020200-
NORTHEAST OKLAHOMA

CITY           SKY/WX    TMP DP  RH WIND       PRES   REMARKS
TULSA          PTCLDY    79  64  60 E5        30.02S
TULSA/JONES    MOCLDY    80  65  59 SE5       30.03S
PONCA CITY     CLEAR     81  66  60 SE9       30.02S
BARTLESVILLE   CLEAR     77  65  66 S3        30.04S
MUSKOGEE       CLEAR     80  64  58 CALM      30.04S
$$

OKZ032-040>043-046>053-073>077-020200-
SOUTH CENTRAL/SOUTHEAST OKLAHOMA

CITY           SKY/WX    TMP DP  RH WIND       PRES   REMARKS
ARDMORE/DWNTWN PTCLDY    77  64  65 CALM      30.04S
MCALESTER      CLEAR     76  70  82 CALM      30.04R
$$



USA.gov is the U.S. government's official web portal to all federal, state and local government web resources and services.